owner,sensor,date,latitude,longitude,vertical_datum,direction_of_sea_water_velocity,sea_water_speed,upward_sea_water_velocity,qcFlag 
ADCP,ioos:station:wmo:42904:1,2011-05-01T10:05:00Z,28.0850,-87.9860,79.9,22.0,28.6,-99999.0,'1111122,1111122,1199999999' 
ADCP,ioos:station:wmo:42904:1,2011-05-01T18:05:00Z,28.0850,-87.9860,79.9,0.0,24.3,-99999.0,'1111122,1114422,1199999999' 
ADCP,ioos:station:wmo:42904:1,2011-05-01T20:05:00Z,28.0850,-87.9860,79.9,2.0,26.0,-99999.0,'1111122,1111122,1199999999' 
ADCP,ioos:station:wmo:42904:1,2011-05-01T23:05:00Z,28.0850,-87.9860,79.9,17.0,26.4,-99999.0,'1111122,1111122,1199999999' 
ADCP,ioos:station:wmo:42904:1,2011-05-02T02:05:00Z,28.0850,-87.9860,79.9,40.0,24.5,-99999.0,'1111122,1111122,1199999999' 
ADCP,ioos:station:wmo:42904:1,2011-05-02T07:05:00Z,28.0850,-87.9860,79.9,60.0,21.4,-99999.0,'1111122,1111122,1199999999' 
ADCP,ioos:station:wmo:42904:1,2011-05-02T09:05:00Z,28.0850,-87.9860,79.8,65.0,17.8,-99999.0,'1111122,1111122,1199999999' 
ADCP,ioos:station:wmo:42904:1,2011-05-02T11:05:00Z,28.0850,-87.9860,79.9,73.0,14.1,-99999.0,'1111122,1111122,1199999999' 
ADCP,ioos:station:wmo:42904:1,2011-05-02T12:05:00Z,28.0850,-87.9860,79.9,58.0,14.0,-99999.0,'1111122,1111122,1199999999' 
ADCP,ioos:station:wmo:42904:1,2011-05-02T17:05:00Z,28.0850,-87.9860,79.9,34.0,16.9,-99999.0,'1111122,1111122,1199999999' 
ADCP,ioos:station:wmo:42904:1,2011-05-02T22:05:00Z,28.0850,-87.9860,79.9,47.0,22.3,-99999.0,'1111122,1111122,1199999999' 
ADCP,ioos:station:wmo:42904:1,2011-05-03T01:05:00Z,28.0850,-87.9860,79.9,49.0,25.2,-99999.0,'1111122,1111122,1199999999' 
ADCP,ioos:station:wmo:42904:1,2011-05-03T08:05:00Z,28.0850,-87.9860,79.8,82.0,21.9,-99999.0,'1111122,1111122,1199999999' 
ADCP,ioos:station:wmo:42904:1,2011-05-03T11:05:00Z,28.0850,-87.9860,79.9,69.0,26.3,-99999.0,'1111122,1111122,1199999999' 
ADCP,ioos:station:wmo:42904:1,2011-05-03T14:05:00Z,28.0850,-87.9860,79.9,72.0,27.4,-99999.0,'1111122,1111122,1199999999' 
ADCP,ioos:station:wmo:42904:1,2011-05-03T18:05:00Z,28.0850,-87.9860,79.9,61.0,34.1,-99999.0,'1111122,1111122,1199999999' 
ADCP,ioos:station:wmo:42904:1,2011-05-03T21:05:00Z,28.0850,-87.9860,79.9,71.0,30.1,-99999.0,'1111122,1111122,1199999999' 
ADCP,ioos:station:wmo:42904:1,2011-05-03T23:05:00Z,28.0850,-87.9860,79.9,78.0,28.6,-99999.0,'1111122,1111122,1199999999' 
ADCP,ioos:station:wmo:42904:1,2011-05-04T02:05:00Z,28.0850,-87.9860,79.9,77.0,30.7,-99999.0,'1111122,1111122,1199999999' 
ADCP,ioos:station:wmo:42904:1,2011-05-04T08:05:00Z,28.0850,-87.9860,80.0,80.0,27.5,-99999.0,'1111122,1111122,1199999999' 
ADCP,ioos:station:wmo:42904:1,2011-05-04T09:05:00Z,28.0850,-87.9860,79.9,68.0,25.7,-99999.0,'1111122,1111122,1199999999' 
ADCP,ioos:station:wmo:42904:1,2011-05-04T10:05:00Z,28.0850,-87.9860,79.9,69.0,27.8,-99999.0,'1111122,1111122,1199999999' 
ADCP,ioos:station:wmo:42904:1,2011-05-04T11:05:00Z,28.0850,-87.9860,79.9,64.0,19.1,-99999.0,'1111122,1111122,1199999999' 
ADCP,ioos:station:wmo:42904:1,2011-05-04T19:45:00Z,28.0850,-87.9860,79.9,73.0,39.9,-99999.0,'1111122,1111122,1199999999' 
ADCP,ioos:station:wmo:42904:1,2011-05-05T00:05:00Z,28.0850,-87.9860,79.9,100.0,41.4,-99999.0,'1111122,1111122,1199999999' 
ADCP,ioos:station:wmo:42904:1,2011-05-05T01:05:00Z,28.0850,-87.9860,79.9,99.0,39.0,-99999.0,'1111122,1111122,1199999999' 
ADCP,ioos:station:wmo:42904:1,2011-05-05T02:05:00Z,28.0850,-87.9860,79.9,100.0,37.2,-99999.0,'1111122,1111122,1199999999' 
ADCP,ioos:station:wmo:42904:1,2011-05-05T07:45:00Z,28.0850,-87.9860,79.9,74.0,34.1,-99999.0,'1111122,1111122,1199999999' 
ADCP,ioos:station:wmo:42904:1,2011-05-05T09:05:00Z,28.0850,-87.9860,79.9,76.0,36.3,-99999.0,'1111122,1111122,1199999999' 
ADCP,ioos:station:wmo:42904:1,2011-05-05T16:45:00Z,28.0850,-87.9860,79.9,82.0,34.9,-99999.0,'1111122,1111122,1199999999' 
ADCP,ioos:station:wmo:42904:1,2011-05-05T17:45:00Z,28.0850,-87.9860,79.9,85.0,36.4,-99999.0,'1111122,1111122,1199999999' 
ADCP,ioos:station:wmo:42904:1,2011-05-05T20:45:00Z,28.0850,-87.9860,79.9,88.0,40.2,-99999.0,'1111122,1111122,1199999999' 
ADCP,ioos:station:wmo:42904:1,2011-05-06T02:45:00Z,28.0850,-87.9860,79.9,87.0,46.5,-99999.0,'1111122,1111122,1199999999' 
ADCP,ioos:station:wmo:42904:1,2011-05-06T05:45:00Z,28.0850,-87.9860,80.0,90.0,42.0,-99999.0,'1111122,1111122,1199999999' 
ADCP,ioos:station:wmo:42904:1,2011-05-06T15:05:00Z,28.0850,-87.9860,79.9,87.0,49.8,-99999.0,'1111122,1111122,1199999999' 
ADCP,ioos:station:wmo:42904:1,2011-05-06T23:05:00Z,28.0850,-87.9860,79.9,98.0,56.6,-99999.0,'1111122,1111122,1199999999' 
ADCP,ioos:station:wmo:42904:1,2011-05-07T19:05:00Z,28.0850,-87.9860,79.9,107.0,64.1,-99999.0,'1111122,1111122,1199999999' 
ADCP,ioos:station:wmo:42904:1,2011-05-07T21:05:00Z,28.0850,-87.9860,79.9,112.0,57.7,-99999.0,'1111122,1111122,1199999999' 
ADCP,ioos:station:wmo:42904:1,2011-05-07T22:05:00Z,28.0850,-87.9860,79.8,118.0,57.1,-99999.0,'1111122,1111122,1199999999' 
ADCP,ioos:station:wmo:42904:1,2011-05-08T02:05:00Z,28.0850,-87.9860,79.9,115.0,59.7,-99999.0,'1111122,1111122,1199999999' 
ADCP,ioos:station:wmo:42904:1,2011-05-08T03:05:00Z,28.0850,-87.9860,79.9,114.0,61.8,-99999.0,'1111122,1111122,1199999999' 
ADCP,ioos:station:wmo:42904:1,2011-05-08T04:05:00Z,28.0850,-87.9860,79.9,114.0,59.5,-99999.0,'1111122,1111122,1199999999' 
ADCP,ioos:station:wmo:42904:1,2011-05-08T06:05:00Z,28.0850,-87.9860,79.9,117.0,69.0,-99999.0,'1111122,1111122,1199999999' 
ADCP,ioos:station:wmo:42904:1,2011-05-08T08:05:00Z,28.0850,-87.9860,79.9,127.0,67.9,-99999.0,'1111122,1111122,1199999999' 
ADCP,ioos:station:wmo:42904:1,2011-05-08T09:05:00Z,28.0850,-87.9860,79.9,128.0,64.6,-99999.0,'1111122,1111122,1199999999' 
ADCP,ioos:station:wmo:42904:1,2011-05-08T11:05:00Z,28.0850,-87.9860,79.9,140.0,61.9,-99999.0,'1111122,1111122,1199999999' 
ADCP,ioos:station:wmo:42904:1,2011-05-08T14:05:00Z,28.0850,-87.9860,79.9,138.0,64.6,-99999.0,'1111122,1111122,1199999999' 
ADCP,ioos:station:wmo:42904:1,2011-05-08T17:05:00Z,28.0850,-87.9860,79.9,130.0,63.6,-99999.0,'1111122,1111122,1199999999' 
ADCP,ioos:station:wmo:42904:1,2011-05-08T21:05:00Z,28.0850,-87.9860,79.9,115.0,67.8,-99999.0,'1111122,1111122,1199999999' 
ADCP,ioos:station:wmo:42904:1,2011-05-08T23:05:00Z,28.0850,-87.9860,79.9,119.0,72.9,-99999.0,'1111122,1111122,1199999999' 
ADCP,ioos:station:wmo:42904:1,2011-05-09T00:05:00Z,28.0850,-87.9860,79.8,120.0,75.6,-99999.0,'1111122,1111122,1199999999' 
ADCP,ioos:station:wmo:42904:1,2011-05-09T02:05:00Z,28.0850,-87.9860,80.0,120.0,67.6,-99999.0,'1111122,1111122,1199999999' 
ADCP,ioos:station:wmo:42904:1,2011-05-09T03:05:00Z,28.0850,-87.9860,79.9,124.0,65.1,-99999.0,'1111122,1111122,1199999999' 
ADCP,ioos:station:wmo:42904:1,2011-05-09T04:05:00Z,28.0850,-87.9860,79.9,125.0,65.0,-99999.0,'1111122,1111122,1199999999' 
ADCP,ioos:station:wmo:42904:1,2011-05-09T06:05:00Z,28.0850,-87.9860,79.9,135.0,72.9,-99999.0,'1111122,1111122,1199999999' 
ADCP,ioos:station:wmo:42904:1,2011-05-09T08:05:00Z,28.0850,-87.9860,79.8,143.0,75.5,-99999.0,'1111122,1111122,1199999999' 
ADCP,ioos:station:wmo:42904:1,2011-05-09T09:05:00Z,28.0850,-87.9860,79.9,149.0,68.4,-99999.0,'1111122,1111122,1199999999' 
ADCP,ioos:station:wmo:42904:1,2011-05-09T09:45:00Z,28.0850,-87.9860,79.8,151.0,66.5,-99999.0,'1111122,1111122,1199999999' 
ADCP,ioos:station:wmo:42904:1,2011-05-09T13:05:00Z,28.0850,-87.9860,79.9,143.0,61.8,-99999.0,'1111122,1111122,1199999999' 
ADCP,ioos:station:wmo:42904:1,2011-05-09T19:05:00Z,28.0850,-87.9860,79.9,117.0,56.2,-99999.0,'1111122,1111122,1199999999' 
ADCP,ioos:station:wmo:42904:1,2011-05-09T20:05:00Z,28.0850,-87.9860,79.9,115.0,57.0,-99999.0,'1111122,1111122,1199999999' 
ADCP,ioos:station:wmo:42904:1,2011-05-09T22:05:00Z,28.0850,-87.9860,79.9,107.0,63.3,-99999.0,'1111122,1111122,1199999999' 
ADCP,ioos:station:wmo:42904:1,2011-05-09T23:05:00Z,28.0850,-87.9860,79.9,112.0,67.0,-99999.0,'1111122,1111122,1199999999' 
ADCP,ioos:station:wmo:42904:1,2011-05-10T00:05:00Z,28.0850,-87.9860,79.9,114.0,64.3,-99999.0,'1111122,1111122,1199999999' 
ADCP,ioos:station:wmo:42904:1,2011-05-10T01:05:00Z,28.0850,-87.9860,79.9,110.0,63.8,-99999.0,'1111122,1111122,1199999999' 
ADCP,ioos:station:wmo:42904:1,2011-05-10T03:05:00Z,28.0850,-87.9860,79.9,117.0,63.9,-99999.0,'1111122,1111122,1199999999' 
ADCP,ioos:station:wmo:42904:1,2011-05-10T05:05:00Z,28.0850,-87.9860,79.9,129.0,68.9,-99999.0,'1111122,1111122,1199999999' 
ADCP,ioos:station:wmo:42904:1,2011-05-10T07:05:00Z,28.0850,-87.9860,79.9,137.0,74.4,-99999.0,'1111122,1111122,1199999999' 
ADCP,ioos:station:wmo:42904:1,2011-05-10T08:05:00Z,28.0850,-87.9860,79.9,137.0,74.4,-99999.0,'1111122,1111122,1199999999' 
ADCP,ioos:station:wmo:42904:1,2011-05-10T10:05:00Z,28.0850,-87.9860,79.9,143.0,77.0,-99999.0,'1111122,1111122,1199999999' 
ADCP,ioos:station:wmo:42904:1,2011-05-10T11:05:00Z,28.0850,-87.9860,79.9,143.0,75.9,-99999.0,'1111122,1111122,1199999999' 
ADCP,ioos:station:wmo:42904:1,2011-05-10T13:05:00Z,28.0850,-87.9860,79.9,146.0,62.4,-99999.0,'1111122,1111122,1199999999' 
ADCP,ioos:station:wmo:42904:1,2011-05-10T14:05:00Z,28.0850,-87.9860,79.9,145.0,62.6,-99999.0,'1111122,1111122,1199999999' 
ADCP,ioos:station:wmo:42904:1,2011-05-10T15:05:00Z,28.0850,-87.9860,79.9,141.0,62.3,-99999.0,'1111122,1111122,1199999999' 
ADCP,ioos:station:wmo:42904:1,2011-05-10T17:05:00Z,28.0850,-87.9860,79.9,137.0,57.2,-99999.0,'1111122,1111122,1199999999' 
ADCP,ioos:station:wmo:42904:1,2011-05-10T18:05:00Z,28.0850,-87.9860,79.9,139.0,58.7,-99999.0,'1111122,1111122,1199999999' 
ADCP,ioos:station:wmo:42904:1,2011-05-10T19:05:00Z,28.0850,-87.9860,79.9,133.0,57.0,-99999.0,'1111122,1111122,1199999999' 
ADCP,ioos:station:wmo:42904:1,2011-05-10T20:05:00Z,28.0850,-87.9860,79.9,125.0,52.2,-99999.0,'1111122,1111122,1199999999' 
ADCP,ioos:station:wmo:42904:1,2011-05-11T00:05:00Z,28.0850,-87.9860,79.9,123.0,58.5,-99999.0,'1111122,1111122,1199999999' 
ADCP,ioos:station:wmo:42904:1,2011-05-11T02:05:00Z,28.0850,-87.9860,79.9,111.0,55.0,-99999.0,'1111122,1111122,1199999999' 
ADCP,ioos:station:wmo:42904:1,2011-05-11T03:05:00Z,28.0850,-87.9860,80.0,114.0,52.5,-99999.0,'1111122,1111122,1199999999' 
ADCP,ioos:station:wmo:42904:1,2011-05-11T05:05:00Z,28.0850,-87.9860,79.9,119.0,50.4,-99999.0,'1111122,1111122,1199999999' 
ADCP,ioos:station:wmo:42904:1,2011-05-11T09:05:00Z,28.0850,-87.9860,79.9,133.0,50.6,-99999.0,'1111122,1111122,1199999999' 
ADCP,ioos:station:wmo:42904:1,2011-05-11T10:05:00Z,28.0850,-87.9860,79.9,137.0,50.8,-99999.0,'1111122,1111122,1199999999' 
ADCP,ioos:station:wmo:42904:1,2011-05-11T11:05:00Z,28.0850,-87.9860,79.9,137.0,59.3,-99999.0,'1111122,1111122,1199999999' 
ADCP,ioos:station:wmo:42904:1,2011-05-11T13:05:00Z,28.0850,-87.9860,80.0,138.0,53.5,-99999.0,'1111122,1111122,1199999999' 
ADCP,ioos:station:wmo:42904:1,2011-05-11T14:05:00Z,28.0850,-87.9860,79.9,139.0,53.7,-99999.0,'1111122,1111122,1199999999' 
ADCP,ioos:station:wmo:42904:1,2011-05-11T16:05:00Z,28.0850,-87.9860,79.9,135.0,47.3,-99999.0,'1111122,1111122,1199999999' 
ADCP,ioos:station:wmo:42904:1,2011-05-11T17:05:00Z,28.0850,-87.9860,79.9,134.0,46.3,-99999.0,'1111122,1111122,1199999999' 
ADCP,ioos:station:wmo:42904:1,2011-05-11T19:05:00Z,28.0850,-87.9860,80.0,123.0,44.8,-99999.0,'1111122,1111122,1199999999' 
ADCP,ioos:station:wmo:42904:1,2011-05-11T23:15:00Z,28.0850,-87.9860,79.9,103.0,37.5,-99999.0,'1111122,1111122,1199999999' 
ADCP,ioos:station:wmo:42904:1,2011-05-11T23:55:00Z,28.0850,-87.9860,79.9,106.0,36.4,-99999.0,'1111122,1111122,1199999999' 
ADCP,ioos:station:wmo:42904:1,2011-05-12T01:15:00Z,28.0850,-87.9860,79.9,100.0,37.5,-99999.0,'1111122,1111122,1199999999' 
ADCP,ioos:station:wmo:42904:1,2011-05-12T02:15:00Z,28.0850,-87.9860,79.9,102.0,40.0,-99999.0,'1111122,1111122,1199999999' 
ADCP,ioos:station:wmo:42904:1,2011-05-12T03:55:00Z,28.0850,-87.9860,79.9,107.0,39.8,-99999.0,'1111122,1111122,1199999999' 
ADCP,ioos:station:wmo:42904:1,2011-05-12T05:15:00Z,28.0850,-87.9860,79.9,114.0,39.9,-99999.0,'1111122,1111122,1199999999' 
ADCP,ioos:station:wmo:42904:1,2011-05-12T05:55:00Z,28.0850,-87.9860,79.9,120.0,39.8,-99999.0,'1111122,1111122,1199999999' 
ADCP,ioos:station:wmo:42904:1,2011-05-12T07:15:00Z,28.0850,-87.9860,79.9,117.0,38.4,-99999.0,'1111122,1111122,1199999999' 
ADCP,ioos:station:wmo:42904:1,2011-05-12T08:55:00Z,28.0850,-87.9860,79.9,123.0,37.4,-99999.0,'1111122,1111122,1199999999' 
ADCP,ioos:station:wmo:42904:1,2011-05-12T10:15:00Z,28.0850,-87.9860,80.0,128.0,32.3,-99999.0,'1111122,1111122,1199999999' 
ADCP,ioos:station:wmo:42904:1,2011-05-12T11:15:00Z,28.0850,-87.9860,79.9,128.0,38.2,-99999.0,'1111122,1111122,1199999999' 
ADCP,ioos:station:wmo:42904:1,2011-05-12T14:15:00Z,28.0850,-87.9860,80.0,129.0,37.5,-99999.0,'1111122,1111122,1199999999' 
ADCP,ioos:station:wmo:42904:1,2011-05-12T15:15:00Z,28.0850,-87.9860,79.8,134.0,35.8,-99999.0,'1111122,1111122,1199999999' 
ADCP,ioos:station:wmo:42904:1,2011-05-12T17:15:00Z,28.0850,-87.9860,79.9,125.0,37.1,-99999.0,'1111122,1111122,1199999999' 
ADCP,ioos:station:wmo:42904:1,2011-05-12T20:15:00Z,28.0850,-87.9860,79.9,111.0,34.0,-99999.0,'1111122,1111122,1199999999' 
ADCP,ioos:station:wmo:42904:1,2011-05-12T22:15:00Z,28.0850,-87.9860,79.9,102.0,31.8,-99999.0,'1111122,1111122,1199999999' 
ADCP,ioos:station:wmo:42904:1,2011-05-12T23:15:00Z,28.0850,-87.9860,79.9,104.0,34.2,-99999.0,'1111122,1111122,1199999999' 
ADCP,ioos:station:wmo:42904:1,2011-05-13T02:15:00Z,28.0850,-87.9860,79.9,106.0,32.1,-99999.0,'1111122,1111122,1199999999' 
ADCP,ioos:station:wmo:42904:1,2011-05-13T05:15:00Z,28.0850,-87.9860,79.9,113.0,34.4,-99999.0,'1111122,1111122,1199999999' 
ADCP,ioos:station:wmo:42904:1,2011-05-13T11:15:00Z,28.0850,-87.9860,79.8,132.0,30.0,-99999.0,'1111122,1111122,1199999999' 
ADCP,ioos:station:wmo:42904:1,2011-05-13T11:55:00Z,28.0850,-87.9860,79.9,129.0,29.5,-99999.0,'1111122,1111122,1199999999' 
ADCP,ioos:station:wmo:42904:1,2011-05-13T13:15:00Z,28.0850,-87.9860,79.9,129.0,27.5,-99999.0,'1111122,1111122,1199999999' 
ADCP,ioos:station:wmo:42904:1,2011-05-13T14:15:00Z,28.0850,-87.9860,79.9,130.0,26.5,-99999.0,'1111122,1111122,1199999999' 
ADCP,ioos:station:wmo:42904:1,2011-05-13T17:55:00Z,28.0850,-87.9860,79.9,114.0,28.6,-99999.0,'1111122,1111122,1199999999' 
ADCP,ioos:station:wmo:42904:1,2011-05-13T19:15:00Z,28.0850,-87.9860,79.9,112.0,25.8,-99999.0,'1111122,1111122,1199999999' 
ADCP,ioos:station:wmo:42904:1,2011-05-13T22:15:00Z,28.0850,-87.9860,79.9,130.0,28.1,-99999.0,'1111122,1111122,1199999999' 
ADCP,ioos:station:wmo:42904:1,2011-05-14T01:15:00Z,28.0850,-87.9860,79.9,107.0,28.9,-99999.0,'1111122,1111122,1199999999' 
ADCP,ioos:station:wmo:42904:1,2011-05-14T02:15:00Z,28.0850,-87.9860,79.9,108.0,28.7,-99999.0,'1111122,1111122,1199999999' 
ADCP,ioos:station:wmo:42904:1,2011-05-14T03:15:00Z,28.0850,-87.9860,79.9,105.0,27.0,-99999.0,'1111122,1111122,1199999999' 
ADCP,ioos:station:wmo:42904:1,2011-05-14T05:15:00Z,28.0850,-87.9860,79.9,106.0,28.3,-99999.0,'1111122,1111122,1199999999' 
ADCP,ioos:station:wmo:42904:1,2011-05-14T06:15:00Z,28.0850,-87.9860,79.9,104.0,28.4,-99999.0,'1111122,1111122,1199999999' 
ADCP,ioos:station:wmo:42904:1,2011-05-14T09:15:00Z,28.0850,-87.9860,80.0,110.0,27.0,-99999.0,'1111122,1111122,1199999999' 
ADCP,ioos:station:wmo:42904:1,2011-05-14T10:15:00Z,28.0850,-87.9860,79.9,110.0,24.1,-99999.0,'1111122,1111122,1199999999' 
ADCP,ioos:station:wmo:42904:1,2011-05-14T11:15:00Z,28.0850,-87.9860,79.9,120.0,30.5,-99999.0,'1111122,1111122,1199999999' 
ADCP,ioos:station:wmo:42904:1,2011-05-14T12:15:00Z,28.0850,-87.9860,79.9,122.0,29.7,-99999.0,'1111122,1111122,1199999999' 
ADCP,ioos:station:wmo:42904:1,2011-05-14T14:15:00Z,28.0850,-87.9860,79.9,126.0,22.4,-99999.0,'1111122,1111122,1199999999' 
ADCP,ioos:station:wmo:42904:1,2011-05-14T18:15:00Z,28.0850,-87.9860,79.8,106.0,27.5,-99999.0,'1111122,1111122,1199999999' 
ADCP,ioos:station:wmo:42904:1,2011-05-14T19:15:00Z,28.0850,-87.9860,79.9,117.0,27.9,-99999.0,'1111122,1111122,1199999999' 
ADCP,ioos:station:wmo:42904:1,2011-05-14T21:15:00Z,28.0850,-87.9860,79.9,122.0,29.5,-99999.0,'1111122,1111122,1199999999' 
ADCP,ioos:station:wmo:42904:1,2011-05-14T22:15:00Z,28.0850,-87.9860,79.9,126.0,29.0,-99999.0,'1111122,1111122,1199999999' 
ADCP,ioos:station:wmo:42904:1,2011-05-14T23:15:00Z,28.0850,-87.9860,79.9,127.0,28.8,-99999.0,'1111122,1111122,1199999999' 
ADCP,ioos:station:wmo:42904:1,2011-05-15T00:15:00Z,28.0850,-87.9860,79.9,124.0,30.1,-99999.0,'1111122,1111122,1199999999' 
ADCP,ioos:station:wmo:42904:1,2011-05-15T02:15:00Z,28.0850,-87.9860,79.9,109.0,29.1,-99999.0,'1111122,1111122,1199999999' 
ADCP,ioos:station:wmo:42904:1,2011-05-15T05:15:00Z,28.0850,-87.9860,80.0,98.0,27.2,-99999.0,'1111122,1111122,1199999999' 
ADCP,ioos:station:wmo:42904:1,2011-05-15T06:15:00Z,28.0850,-87.9860,79.8,95.0,26.4,-99999.0,'1111122,1111122,1199999999' 
ADCP,ioos:station:wmo:42904:1,2011-05-15T08:15:00Z,28.0850,-87.9860,79.9,87.0,25.2,-99999.0,'1111122,1111122,1199999999' 
ADCP,ioos:station:wmo:42904:1,2011-05-15T11:15:00Z,28.0850,-87.9860,79.9,103.0,24.8,-99999.0,'1111122,1111122,1199999999' 
ADCP,ioos:station:wmo:42904:1,2011-05-15T12:15:00Z,28.0850,-87.9860,79.9,98.0,26.2,-99999.0,'1111122,1111122,1199999999' 
ADCP,ioos:station:wmo:42904:1,2011-05-15T13:15:00Z,28.0850,-87.9860,79.9,106.0,26.1,-99999.0,'1111122,1111122,1199999999' 
ADCP,ioos:station:wmo:42904:1,2011-05-15T14:15:00Z,28.0850,-87.9860,79.9,109.0,24.2,-99999.0,'1111122,1111122,1199999999' 
ADCP,ioos:station:wmo:42904:1,2011-05-15T15:15:00Z,28.0850,-87.9860,79.9,112.0,25.0,-99999.0,'1111122,1111122,1199999999' 
ADCP,ioos:station:wmo:42904:1,2011-05-15T16:15:00Z,28.0850,-87.9860,79.9,107.0,25.1,-99999.0,'1111122,1111122,1199999999' 
ADCP,ioos:station:wmo:42904:1,2011-05-15T17:15:00Z,28.0850,-87.9860,79.9,112.0,25.4,-99999.0,'1111122,1111122,1199999999' 
ADCP,ioos:station:wmo:42904:1,2011-05-15T18:15:00Z,28.0850,-87.9860,79.9,114.0,21.9,-99999.0,'1111122,1111122,1199999999' 
ADCP,ioos:station:wmo:42904:1,2011-05-15T19:15:00Z,28.0850,-87.9860,79.9,115.0,21.6,-99999.0,'1111122,1111122,1199999999' 
ADCP,ioos:station:wmo:42904:1,2011-05-15T20:15:00Z,28.0850,-87.9860,79.8,117.0,20.4,-99999.0,'1111122,1111122,1199999999' 
ADCP,ioos:station:wmo:42904:1,2011-05-15T21:15:00Z,28.0850,-87.9860,79.9,120.0,18.8,-99999.0,'1111122,1111122,1199999999' 
ADCP,ioos:station:wmo:42904:1,2011-05-15T22:15:00Z,28.0850,-87.9860,79.9,130.0,17.7,-99999.0,'1111122,1111122,1199999999' 
ADCP,ioos:station:wmo:42904:1,2011-05-15T23:15:00Z,28.0850,-87.9860,79.9,134.0,18.8,-99999.0,'1111122,1111122,1199999999' 
ADCP,ioos:station:wmo:42904:1,2011-05-16T00:15:00Z,28.0850,-87.9860,79.9,136.0,19.6,-99999.0,'1111122,1111122,1199999999' 
ADCP,ioos:station:wmo:42904:1,2011-05-16T01:15:00Z,28.0850,-87.9860,79.9,127.0,15.1,-99999.0,'1111122,1111122,1199999999' 
ADCP,ioos:station:wmo:42904:1,2011-05-16T02:15:00Z,28.0850,-87.9860,79.9,121.0,14.0,-99999.0,'1111122,1111122,1199999999' 
ADCP,ioos:station:wmo:42904:1,2011-05-16T03:15:00Z,28.0850,-87.9860,79.9,96.0,12.5,-99999.0,'1111122,1111122,1199999999' 
ADCP,ioos:station:wmo:42904:1,2011-05-16T04:15:00Z,28.0850,-87.9860,79.9,88.0,14.3,-99999.0,'1111122,1111122,1199999999' 
ADCP,ioos:station:wmo:42904:1,2011-05-16T05:15:00Z,28.0850,-87.9860,79.9,90.0,13.3,-99999.0,'1111122,1111122,1199999999' 
ADCP,ioos:station:wmo:42904:1,2011-05-16T09:15:00Z,28.0850,-87.9860,80.0,82.0,17.9,-99999.0,'1111122,1111122,1199999999' 
ADCP,ioos:station:wmo:42904:1,2011-05-16T11:15:00Z,28.0850,-87.9860,79.9,96.0,19.3,-99999.0,'1111122,1111122,1199999999' 
ADCP,ioos:station:wmo:42904:1,2011-05-16T13:15:00Z,28.0850,-87.9860,79.9,101.0,24.0,-99999.0,'1111122,1111122,1199999999' 
ADCP,ioos:station:wmo:42904:1,2011-05-16T15:15:00Z,28.0850,-87.9860,79.9,108.0,25.1,-99999.0,'1111122,1111122,1199999999' 
ADCP,ioos:station:wmo:42904:1,2011-05-16T17:15:00Z,28.0850,-87.9860,79.9,112.0,18.5,-99999.0,'1111122,1111122,1199999999' 
ADCP,ioos:station:wmo:42904:1,2011-05-16T17:55:00Z,28.0850,-87.9860,79.9,114.0,16.7,-99999.0,'1111122,1111122,1199999999' 
ADCP,ioos:station:wmo:42904:1,2011-05-17T00:15:00Z,28.0850,-87.9860,79.9,138.0,9.0,-99999.0,'1111122,1111122,1199999999' 
ADCP,ioos:station:wmo:42904:1,2011-05-17T01:15:00Z,28.0850,-87.9860,79.9,129.0,13.1,-99999.0,'1111122,1111122,1199999999' 
ADCP,ioos:station:wmo:42904:1,2011-05-17T02:15:00Z,28.0850,-87.9860,79.9,127.0,14.0,-99999.0,'1111122,1111122,1199999999' 
ADCP,ioos:station:wmo:42904:1,2011-05-17T03:15:00Z,28.0850,-87.9860,79.9,106.0,11.2,-99999.0,'1111122,1111122,1199999999' 
ADCP,ioos:station:wmo:42904:1,2011-05-17T05:15:00Z,28.0850,-87.9860,79.9,110.0,12.1,-99999.0,'1111122,1111122,1199999999' 
ADCP,ioos:station:wmo:42904:1,2011-05-17T08:15:00Z,28.0850,-87.9860,79.8,93.0,10.7,-99999.0,'1111122,1111122,1199999999' 
ADCP,ioos:station:wmo:42904:1,2011-05-17T10:15:00Z,28.0850,-87.9860,79.8,61.0,16.0,-99999.0,'1111122,1111122,1199999999' 
ADCP,ioos:station:wmo:42904:1,2011-05-17T11:15:00Z,28.0850,-87.9860,80.0,81.0,14.3,-99999.0,'1111122,1111122,1199999999' 
ADCP,ioos:station:wmo:42904:1,2011-05-17T13:15:00Z,28.0850,-87.9860,79.9,84.0,15.1,-99999.0,'1111122,1111122,1199999999' 
ADCP,ioos:station:wmo:42904:1,2011-05-17T14:15:00Z,28.0850,-87.9860,79.9,90.0,12.9,-99999.0,'1111122,1111122,1199999999' 
ADCP,ioos:station:wmo:42904:1,2011-05-17T19:15:00Z,28.0850,-87.9860,79.9,124.0,9.6,-99999.0,'1111122,1111122,1199999999' 
ADCP,ioos:station:wmo:42904:1,2011-05-17T20:55:00Z,28.0850,-87.9860,79.9,139.0,4.4,-99999.0,'1111122,1111122,1199999999' 
ADCP,ioos:station:wmo:42904:1,2011-05-17T23:15:00Z,28.0850,-87.9860,79.9,108.0,0.6,-99999.0,'1111122,1111122,1199999999' 
ADCP,ioos:station:wmo:42904:1,2011-05-18T01:15:00Z,28.0850,-87.9860,79.9,98.0,4.1,-99999.0,'1111122,1111122,1199999999' 
ADCP,ioos:station:wmo:42904:1,2011-05-18T02:15:00Z,28.0850,-87.9860,79.9,100.0,5.1,-99999.0,'1111122,1111122,1199999999' 
ADCP,ioos:station:wmo:42904:1,2011-05-18T03:15:00Z,28.0850,-87.9860,79.9,90.0,4.2,-99999.0,'1111122,1111122,1199999999' 
ADCP,ioos:station:wmo:42904:1,2011-05-18T06:15:00Z,28.0850,-87.9860,79.9,41.0,3.7,-99999.0,'1111122,1111122,1199999999' 
ADCP,ioos:station:wmo:42904:1,2011-05-18T08:15:00Z,28.0850,-87.9860,79.9,46.0,6.4,-99999.0,'1111122,1111122,1199999999' 
ADCP,ioos:station:wmo:42904:1,2011-05-18T09:15:00Z,28.0850,-87.9860,79.9,33.0,8.3,-99999.0,'1111122,1111122,1199999999' 
ADCP,ioos:station:wmo:42904:1,2011-05-18T10:15:00Z,28.0850,-87.9860,79.9,40.0,12.1,-99999.0,'1111122,1111122,1199999999' 
ADCP,ioos:station:wmo:42904:1,2011-05-18T11:15:00Z,28.0850,-87.9860,79.9,59.0,11.2,-99999.0,'1111122,1111122,1199999999' 
ADCP,ioos:station:wmo:42904:1,2011-05-18T13:15:00Z,28.0850,-87.9860,79.9,67.0,18.3,-99999.0,'1111122,1111122,1199999999' 
ADCP,ioos:station:wmo:42904:1,2011-05-18T14:15:00Z,28.0850,-87.9860,80.0,69.0,17.8,-99999.0,'1111122,1111122,1199999999' 
ADCP,ioos:station:wmo:42904:1,2011-05-18T17:55:00Z,28.0850,-87.9860,79.9,92.0,9.8,-99999.0,'1111122,1111122,1199999999' 
ADCP,ioos:station:wmo:42904:1,2011-05-18T18:55:00Z,28.0850,-87.9860,79.9,103.0,10.0,-99999.0,'1111122,1111122,1199999999' 
ADCP,ioos:station:wmo:42904:1,2011-05-18T20:55:00Z,28.0850,-87.9860,79.9,112.0,9.6,-99999.0,'1111122,1111122,1199999999' 
ADCP,ioos:station:wmo:42904:1,2011-05-18T21:55:00Z,28.0850,-87.9860,79.9,118.0,8.9,-99999.0,'1111122,1111122,1199999999' 
ADCP,ioos:station:wmo:42904:1,2011-05-18T22:55:00Z,28.0850,-87.9860,79.9,128.0,4.2,-99999.0,'1111122,1111122,1199999999' 
ADCP,ioos:station:wmo:42904:1,2011-05-19T01:55:00Z,28.0850,-87.9860,79.9,63.0,9.6,-99999.0,'1111122,1111122,1199999999' 
ADCP,ioos:station:wmo:42904:1,2011-05-19T03:55:00Z,28.0850,-87.9860,79.9,87.0,6.8,-99999.0,'1111122,1111122,1199999999' 
ADCP,ioos:station:wmo:42904:1,2011-05-19T08:55:00Z,28.0850,-87.9860,79.9,90.0,9.6,-99999.0,'1111122,1111122,1199999999' 
ADCP,ioos:station:wmo:42904:1,2011-05-19T10:55:00Z,28.0850,-87.9860,79.9,104.0,10.8,-99999.0,'1111122,1111122,1199999999' 
ADCP,ioos:station:wmo:42904:1,2011-05-19T11:55:00Z,28.0850,-87.9860,79.9,90.0,11.1,-99999.0,'1111122,1111122,1199999999' 